Location: Gwatt
(46.7204°N, 7.6223°E)
Time: 04:39:59
(UTC+00:00)

deb Explorer IX - Visible Passes

Search period start: 28 January 2021 00:00
Search period end: 07 February 2021 00:00
Orbit: 536 x 1104 km, 38.8° (Epoch: 27 January)

Date Brightness Start Highest point End Pass type
(mag) Time Alt. Az. Time Alt. Az. Time Alt. Az.
28 Jan ? 18:21:24 10° WSW 18:27:20 37° S 18:30:07 24° SE visible
28 Jan ? 20:09:12 10° WSW 20:11:23 17° SW 20:11:23 17° SW visible
29 Jan ? 17:57:29 10° WSW 18:03:35 38° S 18:07:55 15° SE visible
29 Jan ? 19:45:16 10° WSW 19:49:12 21° SW 19:49:12 21° SW visible
30 Jan ? 17:33:34 10° WSW 17:39:49 39° S 17:45:19 10° ESE visible
30 Jan ? 19:21:20 10° WSW 19:25:58 22° SSW 19:27:03 21° SSW visible
31 Jan ? 17:09:38 10° WSW 17:16:02 40° S 17:21:43 10° ESE visible
31 Jan ? 18:57:23 10° WSW 19:02:14 22° SSW 19:05:00 16° S visible
01 Feb ? 18:33:26 10° WSW 18:38:30 23° SSW 18:43:01 10° SSE visible
02 Feb ? 18:09:29 10° WSW 18:14:43 24° SSW 18:19:28 10° SSE visible
03 Feb ? 17:45:32 10° W 17:50:56 25° SSW 17:55:51 10° SSE visible
04 Feb ? 17:21:35 10° W 17:27:08 25° SSW 17:32:13 10° SSE visible
